Flag for Moldova Weather past 2 weeks in Bălți, Moldova

Now
73 °F

Passing clouds.


Feels Like: 76 °F
Forecast: 59 / 72 °F
Wind: 5 mph from Northwest

Location: Baltsi-Leadoveni - The North of Moldova

Current Time: Sep 5, 2015 at 3:43:54 PM

Latest Report: Sep 5, 2015 at 3:00 PM


Visibility: N/A

Pressure: 29.92 "Hg

Humidity: 69%

Dew point: 63 °F

Location of BălțiLocation

Historic Weather in Bălți — Graph

°F

Bălți temperature yesterday

Maximum temperature yesterday: 86 °F (at 4:00 PM)
Minimum temperature yesterday: 61 °F (at 6:00 AM)
Average temperature yesterday: 72 °F

Past Weeks' High & Low Weather Summary

 TemperatureHumidityPressure
High97 °F (Sep 1, 4:00 PM)94% (Sep 4, 6:00 AM)30.30 "Hg (Sep 4, 6:00 AM)
Low52 °F (Aug 22, 5:30 AM)19% (Sep 2, 6:30 PM)29.83 "Hg (Sep 2, 2:00 AM)
Average76 °F49%30.05 "Hg
* Reported Aug 21 2:00 PM — Sep 5 2:30 PM, Bălți, Weather by CustomWeather, © 2015

Note: Actual official high and low records may vary slightly from our data, if they occured in-between our weather recording intervals... More about our weather records

Advertising

Bălți weather history for previous 24 hours

 ConditionsComfort  
Time TempWeatherWind HumidityBarometerVisibility
2:30 PM
Sat, Sep 5
73 °FPassing clouds.6 mph65%29.95 "HgN/A
2:00 PM73 °FPassing clouds.7 mph65%29.92 "HgN/A
1:30 PM73 °FPassing clouds.8 mph65%29.95 "HgN/A
1:00 PM72 °FPassing clouds.7 mph65%29.95 "HgN/A
12:30 PM70 °FScattered clouds.8 mph69%29.95 "HgN/A
12:00 PM68 °FScattered clouds.7 mph78%29.98 "HgN/A
11:00 AM64 °FPassing clouds.5 mph78%29.98 "HgN/A
10:30 AM64 °FPassing clouds.6 mph78%29.98 "HgN/A
10:00 AM64 °FPassing clouds.7 mph83%29.98 "HgN/A
9:30 AM64 °FPassing clouds.7 mph83%29.98 "HgN/A
9:00 AM63 °FPassing clouds.8 mph88%29.98 "HgN/A
8:30 AM61 °FPassing clouds.7 mph88%29.98 "HgN/A
8:00 AM61 °FSunny.9 mph88%29.98 "Hg10 mi
2:00 AMN/A7 mphN/AN/AN/A
1:00 AM68 °FMild.3 mph88%29.95 "HgN/A
12:00 AM68 °FMild.7 mph88%29.92 "HgN/A
11:30 PM
Fri, Sep 4
68 °FMild.7 mph88%29.92 "HgN/A
11:00 PM68 °FMild.5 mph88%29.92 "HgN/A
10:30 PM68 °FMild.2 mph83%29.89 "HgN/A
10:00 PM68 °FMild.6 mph83%29.89 "HgN/A
9:30 PM66 °FMild.5 mph94%29.89 "HgN/A
9:00 PM68 °FMild.26 mph88%29.95 "Hg4 mi
8:30 PM72 °FMild.24 mph73%29.89 "HgN/A
8:00 PM81 °FWarm.10 mph54%29.86 "HgN/A
7:30 PM82 °FWarm.5 mph48%29.86 "HgN/A
7:00 PM84 °FScattered clouds.5 mph45%29.86 "HgN/A
6:30 PM86 °FScattered clouds.9 mph46%29.86 "HgN/A
6:00 PM86 °FScattered clouds.10 mph46%29.86 "HgN/A
5:00 PM86 °FPassing clouds.9 mph46%29.86 "HgN/A
4:30 PM84 °FPassing clouds.9 mph48%29.86 "HgN/A
4:00 PM86 °FPassing clouds.9 mph46%29.89 "HgN/A
3:30 PM84 °FPassing clouds.9 mph48%29.89 "HgN/A
3:00 PM84 °FPassing clouds.9 mph48%29.89 "Hg5 mi
Weather by CustomWeather, © 2015

See weather overviewHow to use our weather pages